Regional Weather Roundup
Issued by NWS

Home | Current Version | Previous Version | Graphics & Text | Print | Product List | Glossary On
Versions: 1 2 3 4 5 6 7 8 9 10 11 12 13 14 15 16 17 18 19 20 21 22 23 24 25 26 27 28 29 30 31 32 33 34 35 36 37 38 39 40 41 42 43 44 45 46 47 48 49 50
000
ASUS45 KCYS 122110
RWRWY

WYOMING REGIONAL WEATHER ROUNDUP
NATIONAL WEATHER SERVICE CHEYENNE WY
300 PM MDT SAT JUL 12 2014

NOTE:  "FAIR" INDICATES FEW OR NO CLOUDS BELOW 12,000 FEET
WITH NO SIGNIFICANT WEATHER AND/OR OBSTRUCTIONS TO VISIBILITY.

WYZ001-122200-
YELLOWSTONE NATIONAL PARK

CITY           SKY/WX    TMP DP  RH WIND       PRES   REMARKS
LK YELLOWSTONE   N/A     56  50  80 VRB3      30.48F
W YELLOWSTONE  NOT AVBL

$$
WYZ002>013-054>058-071-098>099-122200-
NORTHERN WYOMING

CITY           SKY/WX    TMP DP  RH WIND       PRES   REMARKS
JACKSON        NOT AVBL
CODY           MOSUNNY   75  52  43 NE9       30.28S
GREYBULL       SUNNY     89  47  23 N14       30.17F
WORLAND        MOSUNNY   86  49  27 NE7       30.20F
SHERIDAN       MOSUNNY   83  53  35 VRB6G17   30.23F
BUFFALO        CLOUDY    77  53  43 N10G24    30.30S
GILLETTE       CLOUDY    82  52  35 N12G18    30.24R
HULETT         MOCLDY    79  57  47 MISG      30.23
NEWCASTLE      FAIR      82  52  34 MISG      30.19

$$
WYZ014>020-022>026-101>103-122200-
CENTRAL WYOMING

CITY           SKY/WX    TMP DP  RH WIND       PRES   REMARKS
BIG PINEY      MOSUNNY   79  48  33 SW9       30.38F
PINEDALE       PTCLDY    81  43  26 N7        30.38S
DUBOIS         CLOUDY    72  46  40 SE9G20    30.38R
LANDER         MOSUNNY   82  48  30 CALM      30.29S
RIVERTON       SUNNY     81  50  33 NE7G17    30.29F
CASPER         PTSUNNY   83  48  29 VRB3      30.27S
DOUGLAS        MOSUNNY   81  50  33 VRB3      30.26S

$$
WYZ021-027>030-104>119-122200-
SOUTHERN WYOMING

CITY           SKY/WX    TMP DP  RH WIND       PRES   REMARKS
EVANSTON       SUNNY     82  48  30 VRB3      30.38F
KEMMERER       MOCLDY    77  43  29 N10G16    30.40S
ROCK SPRINGS   CLOUDY    82  46  28 NE12      30.35F
DIXON          MOCLDY    82  49  31 NW9       30.35F
RAWLINS        MOSUNNY   81  42  25 NE10G20   30.36F
SARATOGA       FAIR      79  45  29 NW6       30.38F
LARAMIE        PTSUNNY   70  55  59 NE10      30.40R
CHEYENNE       MOSUNNY   76  53  44 N15G24    30.32F
TORRINGTON     MOSUNNY   81  59  47 CALM      30.20F

$$



USA.gov is the U.S. government's official web portal to all federal, state and local government web resources and services.